Wind_Speed
6 5 4 2 2 1 1 1 1 2 2 1 1 1 1 2 1 1 0 0 2 1 2 4 7 5 3 4 6 4 2 4 4 3 1 3 17 24 20 20 22 20 19 18 17 16 16 16 15 16 17 17 19 19 19 18 17 18 18 16 18 18 19 20 18 18 19 19 18 17 17 17 15 15 14 13 12 11 10 10 10 9 8 8 8 8 8 8 8 7 7 7 6 7 7 8 8
5 4 2 2 2 1 0 2 2 2 3 2 2 1 3 2 1 2 3 3 1 2 4 6 7 5 4 5 6 4 3 2 2 3 2 9 18 18 18 21 21 21 20 18 18 17 16 16 15 15 14 14 16 17 17 17 17 17 17 16 17 18 18 20 19 17 18 18 18 16 16 16 15 14 14 12 12 11 11 10 9 9 8 8 8 8 8 8 7 7 7 6 6 6 6 7 8
4 2 1 2 1 2 1 2 2 1 3 2 2 3 2 2 2 1 3 2 3 6 7 7 6 4 4 4 3 2 1 2 3 4 5 14 15 14 20 19 20 21 19 18 18 17 16 16 16 15 13 13 13 15 14 15 15 15 17 15 16 18 18 19 19 17 17 17 16 15 15 15 14 14 14 13 12 12 11 10 9 8 7 7 7 7 7 7 6 6 6 5 5 5 5 6 7
4 2 1 1 1 2 2 3 1 2 3 1 1 3 1 1 1 2 1 2 5 7 7 6 4 2 3 4 1 2 1 1 4 3 6 12 13 18 22 20 21 19 18 17 17 18 17 17 17 16 15 14 13 13 13 14 13 13 15 13 14 17 17 17 18 17 17 16 15 14 14 14 14 13 13 13 13 12 11 10 9 8 7 6 6 6 5 6 5 5 5 5 5 5 5 5 6
3 1 1 1 1 1 2 2 1 3 1 2 1 2 3 2 1 2 3 3 2 4 4 4 2 2 3 3 1 1 1 2 4 4 9 11 16 23 22 21 22 19 18 15 15 17 17 16 17 17 16 16 15 14 14 13 13 13 14 13 12 14 16 16 16 16 16 16 15 13 13 13 13 13 13 12 12 11 11 9 8 7 7 6 5 5 5 5 4 4 5 5 4 4 4 5 6
2 1 1 1 1 1 2 2 1 1 2 3 2 3 3 1 1 4 4 3 3 4 3 3 4 3 3 1 1 2 1 4 4 6 12 15 20 23 22 23 22 20 18 15 15 15 15 16 16 16 16 17 17 16 15 14 13 13 14 13 12 13 14 14 15 15 15 15 14 13 12 12 12 12 12 12 11 11 10 9 8 7 6 5 4 4 4 4 3 3 4 5 4 4 4 4 5
0 1 2 2 1 1 2 2 0 1 1 3 2 3 3 2 2 4 4 3 3 4 4 3 5 5 2 0 1 2 1 5 6 9 14 19 23 23 23 24 23 23 21 20 18 17 17 16 16 15 15 16 16 16 16 15 14 13 14 13 12 13 14 14 14 14 14 13 13 13 12 11 11 11 12 11 10 10 9 8 7 6 5 5 4 4 3 3 2 2 4 4 4 3 3 3 4
2 1 1 2 1 2 3 1 1 1 1 2 2 3 3 2 3 4 4 2 1 1 3 3 4 5 1 1 1 3 5 7 9 13 17 21 24 23 24 24 23 23 23 24 23 22 21 18 17 15 14 14 14 15 14 15 15 14 14 13 13 13 13 13 13 13 13 13 13 12 12 11 10 10 11 11 9 9 8 7 7 6 5 5 4 3 3 3 1 2 3 3 3 3 3 3 3
3 2 0 2 1 2 2 1 1 2 2 2 1 3 3 3 4 3 2 2 3 3 3 2 2 4 1 3 2 2 6 11 15 16 19 21 22 23 23 23 23 23 23 23 24 24 22 21 20 17 16 15 14 15 14 16 16 15 14 13 13 13 13 12 12 13 12 13 12 12 11 11 9 9 10 10 9 8 8 7 7 6 5 4 4 3 2 2 1 1 2 3 3 3 2 2 2
3 2 0 1 2 3 2 1 1 1 3 2 2 3 2 3 4 3 2 3 4 3 3 3 4 5 4 4 2 1 8 16 19 18 19 21 21 22 22 21 22 22 21 21 21 21 21 22 22 21 20 19 19 18 18 18 16 15 14 13 13 13 13 12 12 12 12 12 12 11 11 10 9 9 9 10 9 8 8 7 7 6 5 5 4 3 2 1 1 1 2 2 3 3 2 1 1
2 2 2 2 2 2 1 1 2 2 4 3 2 3 3 3 4 2 3 4 3 4 3 3 5 5 5 3 1 4 13 18 19 19 19 20 19 20 21 19 19 19 19 18 17 18 19 19 20 21 21 20 20 18 18 16 15 14 13 13 13 13 13 13 12 12 12 12 11 11 11 10 10 10 10 10 9 8 8 7 6 6 5 5 4 3 3 2 1 1 2 3 3 3 3 2 1
2 2 3 3 1 1 2 1 2 4 4 3 2 2 1 4 4 2 4 5 3 4 2 1 4 4 4 2 1 8 14 15 18 19 18 19 18 19 19 18 17 17 17 16 15 15 16 16 16 17 17 17 17 15 14 14 13 12 12 12 12 12 12 13 13 12 12 12 12 11 11 11 10 10 10 9 9 8 8 7 7 6 5 5 4 4 3 2 2 2 3 4 3 3 4 3 2
1 0 3 1 1 1 1 1 2 3 3 2 0 2 2 3 2 5 4 5 5 4 2 3 7 4 4 2 3 6 9 13 18 19 18 19 18 18 18 17 17 16 15 15 14 14 14 14 13 13 13 13 13 13 12 12 12 12 12 11 11 11 11 12 12 13 13 13 12 12 12 12 11 11 10 9 8 8 8 7 7 6 6 5 4 4 3 2 2 3 4 4 4 4 4 3 2
1 2 3 1 1 1 1 1 1 2 1 1 2 3 1 2 4 6 6 6 4 3 4 6 8 5 3 3 3 4 7 16 19 19 19 18 17 17 16 16 16 16 15 14 13 13 13 13 12 12 11 11 11 12 11 12 12 12 12 11 11 10 11 11 11 12 13 13 13 12 12 12 12 11 10 10 9 8 7 7 7 6 6 5 5 4 4 3 3 4 4 4 4 5 4 3 3
2 1 3 2 1 1 1 1 1 4 1 1 1 4 2 2 4 7 6 6 2 2 7 6 4 3 3 6 4 5 11 20 20 20 20 18 17 16 15 15 16 16 15 14 13 12 12 12 12 12 12 11 11 11 10 11 12 12 12 11 11 11 11 11 11 12 12 13 12 11 11 11 11 11 10 9 9 8 7 7 7 6 6 5 5 4 4 4 4 5 5 5 5 5 4 3 4
2 2 3 2 1 1 1 1 1 3 1 2 1 4 3 3 4 6 4 4 5 4 5 3 3 1 5 5 5 12 19 22 21 21 20 18 17 15 14 13 14 15 14 14 12 11 12 13 13 12 12 12 12 11 10 10 11 11 12 11 11 12 12 11 11 11 11 12 12 12 11 11 11 11 10 9 9 8 7 8 8 7 6 5 4 4 4 4 5 4 5 6 5 5 5 5 5
1 2 2 1 2 2 3 2 2 3 2 2 2 5 4 1 3 3 2 6 7 6 2 1 0 1 5 6 14 22 22 22 22 21 19 18 17 15 14 13 13 13 13 13 12 11 12 12 13 12 13 13 12 11 10 10 10 10 11 10 11 12 11 11 11 11 11 11 12 13 12 12 11 11 10 10 9 9 8 8 8 7 7 6 5 4 4 4 4 4 6 7 6 6 5 6 6
2 2 2 1 3 3 4 4 3 3 2 2 2 3 3 3 2 2 4 6 6 5 3 3 4 6 9 14 22 25 22 22 21 20 18 17 16 15 15 14 14 13 12 12 12 12 12 12 12 12 13 13 12 12 11 10 9 10 10 9 10 11 11 11 11 12 12 12 12 12 13 12 12 11 10 10 10 9 9 8 7 7 7 6 5 5 5 5 4 5 7 7 6 6 6 7 8
2 2 1 3 4 3 2 4 3 2 0 2 3 2 2 1 4 3 3 5 6 5 3 4 7 7 11 17 23 23 21 21 19 19 17 16 15 15 14 15 15 14 13 13 13 14 13 13 12 12 13 13 12 12 12 11 10 10 10 9 10 11 11 11 11 12 12 12 12 11 12 12 11 10 10 9 9 8 8 8 7 7 7 6 5 5 5 5 5 7 7 7 6 7 7 8 8
2 2 1 4 3 1 1 3 2 0 3 2 3 4 3 2 3 3 5 7 6 4 4 5 6 8 10 13 18 21 20 18 18 18 16 16 15 14 14 15 15 15 15 15 15 15 14 14 13 13 13 13 13 12 13 12 11 10 10 10 11 11 11 11 11 11 11 11 11 11 12 12 11 10 9 8 8 8 8 7 7 6 6 6 6 6 6 6 6 7 7 7 7 7 7 8 8
1 2 3 3 1 1 1 2 1 1 3 1 3 5 5 3 1 3 8 8 3 5 7 7 11 13 13 12 15 18 18 16 16 16 15 15 14 13 14 15 15 15 15 15 16 15 15 16 14 13 14 14 13 13 13 12 11 11 11 11 11 11 11 11 11 11 11 10 10 11 11 11 11 11 10 8 8 8 8 8 8 7 7 7 6 7 8 8 7 7 7 7 7 7 7 7 8
1 3 3 3 3 1 1 2 1 0 3 1 3 3 3 4 0 6 11 8 4 6 8 8 13 15 15 15 15 16 15 14 15 15 15 14 14 13 13 14 15 16 16 16 16 15 16 17 15 14 14 14 14 13 13 12 11 12 12 11 11 10 10 11 11 11 11 10 11 11 11 11 11 11 10 8 8 8 8 8 8 7 7 7 7 7 7 7 6 6 6 6 6 7 7 7 7
0 3 0 3 3 1 2 3 1 1 3 1 1 1 3 3 2 4 9 7 3 4 8 8 11 15 17 16 14 14 13 13 14 16 16 15 15 15 15 16 17 18 18 18 18 16 17 18 16 15 15 15 15 14 14 12 11 11 11 11 11 10 10 11 11 11 11 11 11 11 11 11 11 11 10 9 9 8 8 8 8 7 7 6 6 6 6 5 5 5 5 5 6 6 6 6 6
0 2 0 2 1 1 2 3 2 3 2 3 1 2 3 3 3 1 4 4 1 6 10 10 11 15 17 14 12 12 12 13 15 17 18 17 17 17 16 17 17 19 18 18 20 19 19 18 17 17 16 16 16 15 15 14 12 12 11 11 11 10 10 11 11 11 11 10 10 11 11 11 11 11 11 10 9 9 8 8 7 7 6 6 6 5 5 5 5 5 5 5 5 5 5 5 6
1 3 1 1 1 1 2 2 2 2 2 3 2 3 1 2 2 0 3 2 6 10 12 12 12 13 13 12 12 11 11 13 15 16 17 16 16 16 16 16 17 18 19 20 20 20 20 19 18 18 18 18 17 16 16 15 14 13 12 12 11 11 11 11 11 11 11 11 11 11 11 10 11 11 11 10 10 9 8 8 7 6 6 5 5 5 4 5 5 5 4 4 4 5 6 7 10
3 3 0 1 2 1 2 0 1 2 2 1 2 4 3 1 2 1 3 6 10 11 12 13 13 12 11 11 11 11 11 12 14 16 16 15 15 15 16 16 17 19 20 20 21 22 21 20 19 19 19 18 18 17 17 16 15 14 14 13 12 11 11 11 11 11 11 11 11 11 10 10 11 11 10 10 9 8 8 8 7 6 5 5 5 5 5 4 4 4 4 4 4 6 9 11 13
2 5 3 3 2 2 0 1 1 1 3 2 1 4 4 2 2 1 1 8 12 12 12 12 13 12 11 10 10 11 11 13 16 16 14 14 15 17 17 17 18 19 20 20 22 23 23 22 21 20 20 19 18 18 17 17 16 16 15 14 12 12 11 10 11 11 11 11 11 11 10 10 11 10 9 8 8 7 7 7 6 6 5 5 5 5 4 3 3 3 3 5 7 9 12 13 14
3 6 3 4 3 2 2 2 1 1 2 3 3 3 5 3 1 4 4 9 12 14 12 12 12 11 11 11 10 9 10 14 16 15 15 16 17 19 20 21 21 20 21 22 23 23 23 23 23 22 21 20 20 19 18 17 17 16 15 14 13 12 11 11 11 11 11 11 11 11 10 10 10 9 8 8 7 7 7 7 6 6 5 5 5 4 3 3 3 3 4 7 9 11 12 12 12
3 6 3 3 4 2 3 2 1 1 1 2 4 3 5 2 2 5 7 10 10 13 13 11 11 10 10 10 9 8 10 13 15 15 18 19 19 21 22 23 23 21 22 23 22 23 24 24 24 23 22 22 21 20 19 18 17 17 16 15 14 13 12 11 11 11 11 11 11 11 10 10 9 9 8 7 6 6 6 7 6 6 5 5 5 4 3 3 4 5 6 9 10 10 12 11 11
2 4 3 1 4 3 5 4 2 2 1 2 3 1 5 5 5 4 6 10 10 11 11 11 10 9 9 9 8 8 9 12 15 18 20 20 21 22 23 23 23 22 22 22 22 24 25 25 25 24 24 23 22 21 21 19 18 18 17 16 15 14 13 12 12 11 11 11 11 10 9 9 9 8 8 6 6 5 5 6 6 6 5 5 5 4 4 4 6 7 7 8 8 9 11 10 11
2 2 2 2 1 4 1 4 5 4 1 3 4 2 5 6 6 5 5 10 12 11 10 10 9 9 9 9 8 8 10 13 18 20 22 22 22 22 23 22 23 23 22 23 24 24 25 25 25 25 25 24 23 22 22 21 19 18 18 17 16 15 14 13 12 11 11 10 10 9 9 8 8 8 7 6 6 5 5 6 6 6 5 5 5 5 5 6 7 6 6 6 6 9 9 9 10
2 1 2 2 2 3 2 3 8 5 1 3 5 2 5 6 5 4 4 8 11 11 10 10 10 10 9 9 9 8 9 13 18 20 22 23 23 22 24 24 24 25 24 24 24 24 24 25 26 26 26 25 24 23 22 21 20 19 19 18 17 17 15 14 13 12 11 11 11 10 9 8 8 8 8 7 7 6 6 7 7 6 6 7 7 6 7 6 6 5 4 4 7 9 8 7 9
3 1 2 2 2 3 3 1 5 4 2 1 3 2 3 4 3 2 2 7 9 9 10 11 11 11 11 9 9 8 8 10 13 18 22 23 24 24 25 26 26 26 25 25 25 25 26 25 26 26 26 26 25 24 23 22 21 20 20 19 18 18 17 15 14 13 12 12 12 11 10 10 9 9 8 8 8 8 8 8 8 7 8 8 8 7 6 5 4 4 3 4 7 9 7 7 9
3 1 2 3 2 2 2 1 3 3 3 3 4 3 4 5 2 2 2 7 9 9 10 11 11 10 10 9 9 9 9 9 11 17 24 25 25 25 25 26 27 27 26 26 26 26 26 26 26 26 26 26 25 24 23 22 21 21 20 19 19 18 18 16 15 14 13 13 13 13 12 11 10 9 9 9 9 8 9 9 8 7 8 8 7 7 5 4 3 4 4 4 6 7 6 7 8
3 2 1 3 2 3 4 3 3 5 3 4 4 4 8 9 5 1 2 6 10 11 10 10 10 10 10 10 9 10 10 11 13 20 26 27 26 26 26 25 26 27 26 26 26 25 26 26 25 25 25 26 25 24 23 22 21 21 21 20 20 19 18 17 16 15 14 13 13 13 13 12 12 10 10 10 8 9 9 8 7 7 7 7 7 7 5 4 4 4 5 6 6 6 6 5 6
6 5 4 3 3 4 5 4 5 8 4 4 7 6 8 9 8 5 3 4 9 11 9 8 9 9 9 9 9 9 11 12 15 22 26 26 27 27 27 26 25 27 27 26 26 25 25 25 25 25 25 25 25 24 23 22 21 21 21 21 21 21 20 18 17 16 15 14 14 13 13 12 13 12 11 10 8 8 8 7 7 7 7 7 7 6 5 5 6 6 6 6 6 5 5 4 4
6 4 3 4 4 5 4 3 5 8 4 5 8 6 6 7 7 6 3 4 7 9 10 9 9 9 9 10 10 10 11 12 15 20 24 26 28 28 26 25 25 25 25 26 26 26 26 26 26 26 26 25 25 25 24 24 23 22 22 22 23 22 20 19 18 17 16 15 14 14 12 12 13 14 13 10 8 8 9 8 8 8 7 7 7 7 7 8 8 8 7 6 5 4 4 4 4
3 4 2 4 4 6 5 3 3 6 4 5 5 5 8 8 7 5 3 5 7 9 10 11 11 10 9 10 11 11 10 8 9 14 19 24 26 26 26 25 25 26 26 28 28 28 27 26 27 27 26 27 27 27 26 25 25 24 23 23 23 22 21 20 19 18 17 16 15 14 12 10 12 14 13 11 9 10 10 10 9 8 8 8 8 9 9 9 9 8 7 6 5 4 4 5 4
2 2 1 4 4 4 4 2 1 4 4 4 2 5 8 8 7 5 5 6 6 7 10 10 12 12 10 11 11 11 10 7 7 10 15 21 24 25 25 25 27 29 29 29 29 28 27 27 27 27 27 28 28 28 27 26 25 24 22 22 21 21 20 19 18 17 17 17 16 15 13 11 11 12 13 12 11 11 12 12 12 10 10 10 10 11 11 10 10 9 8 6 5 5 4 4 4
2 3 2 4 4 2 4 4 2 2 2 1 2 4 6 5 5 6 7 7 5 5 8 7 8 11 12 13 12 11 11 10 9 9 11 17 21 23 25 26 27 27 27 27 28 28 28 29 29 29 29 29 29 29 28 27 25 23 21 20 19 18 18 17 17 17 17 17 17 17 15 13 12 13 14 14 13 13 13 14 14 13 13 12 11 11 11 10 10 9 8 6 5 5 4 3 3
3 5 5 6 6 5 4 3 2 2 2 1 3 2 5 3 4 6 4 4 4 5 6 6 6 7 9 10 11 12 12 12 11 10 10 13 18 23 25 27 26 26 27 28 30 31 31 31 31 31 30 29 29 29 28 26 24 23 21 18 16 15 16 16 16 18 18 18 18 18 17 16 16 16 17 17 16 15 14 14 15 15 14 13 12 11 11 10 10 9 8 6 6 5 4 4 3
4 6 10 12 11 5 5 5 4 4 3 3 4 2 5 4 3 7 3 3 6 5 6 9 8 6 7 7 8 10 11 11 11 12 11 13 18 22 24 26 26 27 29 31 33 34 33 32 32 31 30 30 29 29 28 27 26 24 23 21 19 17 17 18 18 19 20 20 19 19 17 17 18 19 19 19 18 18 16 15 15 15 14 13 12 12 11 10 10 9 8 7 6 4 4 5 4
4 5 9 10 8 5 8 7 4 2 3 3 2 4 4 6 4 6 4 5 8 6 7 10 8 8 8 7 7 8 10 10 10 10 11 13 17 20 22 25 28 29 31 32 32 32 32 31 31 32 31 31 30 29 28 28 27 26 25 25 24 22 21 21 21 20 19 19 19 18 17 17 19 20 20 20 20 19 18 17 16 15 15 14 13 12 12 11 10 9 9 8 6 4 4 5 4
4 6 3 5 6 7 10 9 5 3 2 3 3 3 1 5 5 5 3 6 7 7 9 10 9 9 9 9 8 8 9 10 10 10 10 12 17 20 23 27 30 31 31 30 30 32 32 31 31 32 32 31 30 30 29 29 29 28 27 26 25 25 24 23 21 19 18 18 18 18 17 18 19 19 20 21 20 19 18 17 16 16 15 15 14 13 12 11 10 10 9 8 7 5 5 5 4
7 4 1 3 4 5 7 6 3 1 1 3 4 2 1 4 6 4 1 4 6 9 12 12 11 11 11 11 11 10 9 9 10 11 11 13 17 23 27 29 31 30 30 31 32 33 33 32 31 31 31 30 30 30 30 30 30 29 28 27 26 25 25 23 20 18 18 17 17 17 17 18 18 18 18 19 20 20 18 17 15 15 15 14 14 13 11 11 11 10 9 8 7 6 6 6 6
5 2 6 4 4 5 4 5 3 3 2 4 5 5 2 4 6 3 2 3 7 11 12 12 13 13 12 11 11 11 8 8 10 11 12 15 21 26 28 29 29 29 30 31 31 31 32 31 30 30 31 31 31 31 31 31 31 29 28 28 27 26 24 22 19 18 18 18 18 18 18 18 18 18 17 18 20 20 19 18 15 14 14 13 13 13 12 12 11 10 8 7 7 7 7 7 7
3 5 7 6 7 5 4 3 4 4 1 6 7 8 4 2 5 3 3 5 7 8 8 9 11 12 11 11 10 11 9 8 8 9 11 15 22 25 24 25 26 28 28 28 29 29 30 31 31 32 32 31 30 30 30 31 31 31 30 30 29 28 25 22 21 20 19 19 19 19 18 18 19 18 17 18 19 19 20 19 17 14 13 12 12 12 13 12 11 10 8 8 7 7 7 8 8
4 2 4 4 4 4 4 4 4 3 4 6 4 5 4 1 6 4 6 7 5 6 7 9 12 12 11 10 10 10 9 8 8 8 9 11 13 16 18 21 23 24 25 27 28 29 30 31 31 31 32 32 32 32 32 31 31 31 31 31 30 29 27 25 23 22 21 20 20 19 19 19 20 20 19 19 19 19 19 20 19 17 14 13 12 13 14 13 12 11 9 9 9 9 9 10 10
5 4 4 3 2 2 2 2 1 2 5 4 2 4 3 4 8 8 10 10 7 7 7 9 11 12 11 11 10 9 7 7 8 8 8 8 8 11 16 19 21 23 25 28 29 29 29 30 31 33 33 30 25 24 26 28 30 32 31 31 31 30 28 27 26 24 22 22 20 20 20 21 22 22 21 21 20 19 19 20 22 21 18 15 13 13 14 14 13 12 11 11 10 10 10 11 11
5 5 4 4 2 2 1 3 1 3 4 2 2 4 0 4 6 7 10 10 7 8 8 8 9 10 11 11 10 8 7 8 8 8 8 8 9 12 17 20 22 24 27 29 29 28 27 28 30 27 20 17 16 16 17 19 23 28 31 31 31 30 29 28 27 26 24 22 21 20 21 22 23 24 23 21 20 19 19 20 22 23 21 18 15 14 14 15 15 14 14 13 12 12 12 12 12
3 4 5 4 4 4 3 3 2 3 2 3 1 1 2 3 4 5 6 7 6 6 7 6 6 7 7 6 7 8 8 8 7 8 9 9 11 16 19 21 24 26 28 29 28 29 30 29 26 19 13 17 24 25 25 24 23 24 27 30 31 31 30 29 28 27 26 24 22 21 20 21 23 24 23 22 21 20 19 19 21 23 23 21 18 16 15 16 16 16 16 15 15 14 14 14 13
3 3 5 2 4 5 2 3 5 4 1 1 1 3 4 5 6 5 3 5 4 2 4 5 4 5 6 6 6 7 8 8 8 8 9 9 13 18 20 22 24 26 28 29 29 31 31 26 23 24 24 28 31 30 31 32 30 27 25 27 30 31 30 30 29 27 26 25 24 23 21 21 22 23 23 23 23 22 21 20 21 23 23 22 21 19 18 18 18 18 18 18 18 18 17 17 16
1 3 3 4 4 7 4 2 0 3 2 2 1 3 5 4 5 5 4 5 4 2 3 4 4 5 6 6 7 7 8 8 8 9 9 10 12 17 20 22 25 26 28 30 29 30 30 26 26 30 31 32 32 32 33 33 32 30 26 25 26 29 30 30 30 28 27 26 24 24 23 22 21 21 22 23 24 24 22 22 22 23 24 24 23 22 21 20 19 19 19 19 19 19 19 19 19
4 2 5 3 2 4 4 2 2 4 2 4 2 3 5 3 3 4 4 3 2 2 2 2 3 5 6 6 7 8 8 8 9 9 10 10 12 16 20 23 26 28 29 29 29 29 30 31 32 34 36 36 34 32 32 32 32 30 27 25 25 27 28 29 30 29 28 27 25 25 24 24 23 22 21 22 24 25 24 23 23 23 24 25 24 24 22 21 21 20 20 20 20 19 19 20 20
4 4 4 3 2 1 1 2 2 1 2 3 3 4 3 3 4 3 2 4 3 1 1 1 3 5 5 5 6 7 7 6 7 8 8 8 10 15 20 22 24 25 26 28 30 30 31 33 35 38 40 39 36 32 31 32 31 30 29 28 28 28 28 28 28 28 28 27 26 25 24 24 24 23 22 22 23 24 24 24 24 24 24 25 26 25 24 22 22 22 21 21 21 20 20 21 21
1 3 3 2 3 4 2 2 3 3 2 2 3 4 3 6 5 4 6 8 6 4 3 4 5 5 5 6 6 6 7 7 7 7 8 8 10 16 20 22 23 24 26 28 30 31 32 34 36 37 36 35 34 32 30 30 30 30 28 28 29 30 29 28 27 27 27 27 26 25 24 24 24 24 23 22 21 21 22 24 24 24 24 25 26 26 25 24 23 23 22 22 22 21 21 21 21
2 3 3 2 2 2 2 1 1 3 4 2 1 2 5 7 4 6 8 8 6 6 6 6 5 5 5 5 6 6 7 7 7 8 8 8 9 13 18 20 22 23 25 27 29 30 31 32 33 33 31 31 32 32 31 30 30 30 29 29 29 29 27 27 27 26 26 26 25 25 24 23 23 24 24 23 22 20 20 22 24 25 25 25 25 25 25 25 24 24 23 23 22 21 21 22 22
6 6 6 5 4 4 4 1 2 1 3 4 3 2 7 6 3 5 7 6 6 6 6 5 5 5 5 5 5 6 6 7 7 7 7 6 6 9 13 16 18 20 23 26 28 28 30 30 30 32 33 33 33 33 31 30 29 30 31 29 28 27 26 26 26 26 26 26 26 25 24 24 24 25 25 24 23 22 20 21 22 24 24 24 25 25 25 25 25 25 24 24 23 22 22 22 23
Wind_Direction
160 145 135 101 76 80 22 48 52 328 70 71 310 352 292 234 206 169 49 155 112 175 182 119 122 117 115 143 159 161 121 153 159 137 171 205 167 163 164 160 154 155 153 153 155 151 152 151 151 157 160 161 162 157 153 152 153 151 149 152 148 145 141 134 133 131 129 127 128 132 134 136 137 140 139 135 133 133 133 126 121 116 111 106 102 97 92 90 83 75 72 73 82 85 86 90 97
156 146 139 91 59 68 271 78 84 328 48 40 316 261 274 297 42 135 185 214 176 149 127 117 110 76 61 110 129 113 56 31 91 111 78 147 157 163 164 158 154 151 150 154 157 154 155 153 154 159 159 161 164 157 153 151 149 148 146 151 148 143 141 137 134 131 130 129 130 133 135 136 137 137 135 133 132 132 131 127 122 114 108 104 101 95 89 87 78 68 62 63 75 84 87 91 100
151 141 118 106 34 66 108 46 86 19 66 62 302 260 286 23 59 220 236 226 133 115 109 110 100 65 62 91 91 91 92 16 96 99 110 147 153 160 164 158 154 150 150 156 156 154 156 156 157 158 158 158 162 158 157 151 149 150 144 150 152 142 139 137 133 132 133 133 134 135 134 134 136 136 137 138 136 134 131 128 122 114 108 104 101 96 91 87 77 66 57 58 70 86 95 98 106
155 138 58 81 17 45 67 43 131 113 94 141 292 286 280 125 52 337 318 101 120 115 112 117 97 11 78 107 39 77 111 46 113 113 133 160 162 157 161 159 154 150 151 157 156 156 156 158 160 158 158 159 161 158 158 151 153 155 144 153 157 142 137 135 133 134 135 135 134 135 134 135 135 135 140 141 139 138 134 130 126 120 114 109 106 100 92 89 83 69 54 54 64 84 96 106 117
156 131 352 66 62 22 88 75 102 82 133 176 116 293 272 199 75 72 108 83 84 105 113 114 94 11 81 101 34 113 135 101 118 131 138 158 161 154 158 159 152 149 153 157 157 157 155 158 162 162 160 162 162 156 155 154 160 159 149 160 158 142 138 137 137 137 138 137 136 138 138 137 137 137 140 140 139 138 135 134 131 127 123 119 117 110 99 91 84 69 53 47 55 78 89 104 122
151 89 6 38 103 164 101 62 11 14 229 168 120 282 292 224 149 123 122 65 37 61 69 84 112 106 82 46 63 122 175 132 128 146 146 152 158 154 157 158 152 149 150 153 156 156 159 164 165 164 163 164 162 156 155 158 164 162 158 163 155 145 143 143 144 141 140 138 140 144 141 138 139 142 143 141 140 139 138 139 139 138 135 135 132 125 109 97 80 66 50 36 43 74 87 103 124
70 359 16 34 54 80 90 80 259 292 236 164 164 261 292 258 194 140 127 91 46 31 37 77 117 107 82 359 74 38 90 143 136 154 156 152 156 155 156 157 154 151 149 153 157 159 167 173 171 166 164 165 160 155 159 161 166 167 163 160 153 149 147 148 149 146 144 142 144 146 143 141 144 149 148 144 142 142 144 146 151 153 153 153 150 142 118 103 79 58 43 29 36 68 91 108 132
11 340 36 72 32 25 84 75 259 229 207 194 206 239 250 207 163 147 148 121 96 55 74 116 105 90 40 30 77 23 72 128 138 152 155 150 155 156 158 158 156 155 154 157 159 162 168 173 174 170 167 166 157 154 160 164 168 169 164 158 153 151 150 152 153 152 151 150 150 149 148 148 150 153 153 149 146 147 150 155 160 166 167 168 163 156 132 113 95 46 38 21 27 52 87 108 138
12 19 30 68 69 25 62 3 304 240 258 270 265 261 233 156 123 133 150 84 125 118 94 149 90 95 125 59 85 20 80 123 134 143 149 150 155 156 160 162 161 159 159 161 160 161 162 166 170 169 169 168 160 158 165 168 167 165 162 158 153 151 152 154 155 155 156 156 154 154 154 154 156 155 157 155 150 152 157 164 168 174 177 177 172 165 150 131 138 29 24 3 10 21 45 99 152
11 25 57 61 80 39 33 338 313 268 271 282 277 253 200 125 97 122 146 108 123 110 87 87 71 106 128 85 61 41 117 129 130 136 147 151 154 157 162 165 166 163 162 163 159 158 157 161 165 166 168 167 165 166 170 169 164 160 157 156 153 152 152 153 154 156 159 160 158 160 161 161 163 162 164 163 157 160 166 171 175 181 184 184 181 177 174 163 226 339 352 336 349 357 3 19 208
3 346 77 71 63 76 119 301 307 291 284 304 309 250 181 123 88 103 132 120 99 103 130 78 82 114 103 85 29 120 131 130 130 137 147 151 154 160 162 164 167 166 166 162 157 160 157 156 159 164 165 163 165 165 166 163 158 156 154 152 153 153 153 154 154 155 158 161 163 167 170 170 173 172 172 170 165 170 174 176 183 189 193 193 189 191 196 206 255 306 321 317 329 338 341 335 302
7 330 64 80 89 143 170 163 288 301 313 356 13 336 154 131 100 135 142 134 119 111 164 115 140 150 85 74 84 126 132 128 133 140 146 150 155 163 166 165 165 168 168 161 157 160 159 153 153 158 157 157 158 157 157 157 156 154 153 153 152 153 155 157 156 156 161 164 169 172 178 179 181 182 178 176 174 178 180 183 190 193 200 201 196 203 207 220 260 295 300 299 310 318 327 328 315
31 181 77 87 188 148 114 118 282 332 358 11 271 329 96 148 154 165 147 132 141 139 191 155 153 140 83 91 113 135 137 133 137 142 147 149 156 164 167 167 165 168 168 163 158 158 158 153 150 149 147 147 149 150 153 153 156 156 155 155 155 158 158 160 160 161 165 168 171 176 183 185 186 187 181 179 181 184 186 191 198 203 209 210 208 213 216 226 258 280 286 290 301 309 317 323 302
191 161 104 106 336 70 93 341 305 72 18 285 257 311 24 205 188 153 138 138 159 164 139 138 141 106 96 134 132 163 144 141 143 143 147 150 157 162 165 168 168 168 167 165 162 158 155 152 152 149 144 142 144 149 153 154 157 159 157 155 158 163 163 164 166 169 172 172 173 177 185 190 189 189 185 182 186 188 192 200 207 211 212 215 215 216 225 233 254 268 277 286 296 302 307 307 272
172 120 96 101 19 22 106 254 234 108 181 245 311 314 313 257 154 145 162 154 156 134 118 131 149 95 157 180 168 177 149 146 147 144 148 150 155 158 161 166 169 171 169 169 167 163 157 155 157 154 151 147 148 152 156 158 157 159 157 158 163 165 166 167 171 178 177 174 175 177 185 192 192 190 189 189 192 194 199 208 214 216 214 216 215 219 231 235 253 267 278 287 291 295 296 278 257
143 95 73 80 135 192 141 194 160 108 234 247 317 348 7 336 109 143 200 135 112 136 126 146 202 129 170 183 148 150 147 147 147 145 146 147 152 154 156 163 168 172 173 174 172 170 164 160 161 160 158 154 157 159 162 163 157 159 161 163 167 165 167 169 176 183 179 177 178 180 186 193 195 193 192 196 199 200 205 212 217 217 216 216 214 222 231 236 250 266 280 285 288 287 277 258 250
73 77 70 48 169 191 184 190 168 145 253 278 351 12 55 46 74 113 116 94 118 142 111 103 315 61 137 144 136 142 145 147 146 145 145 145 151 154 157 163 168 173 177 181 180 176 172 166 166 165 162 161 164 164 167 169 159 160 164 167 169 165 166 171 179 183 179 181 181 181 184 189 196 197 196 199 202 204 206 212 217 217 217 215 214 224 229 239 254 265 272 277 281 276 264 250 247
65 92 116 203 197 201 184 176 183 166 241 302 356 9 78 118 129 116 86 79 108 109 44 58 51 58 104 126 136 141 144 146 146 146 148 150 155 158 162 169 171 174 178 185 186 181 179 177 176 173 169 166 168 168 168 172 168 165 166 169 170 166 168 174 181 183 180 182 184 183 183 188 195 199 202 203 205 207 205 208 215 217 217 215 216 225 233 241 254 260 264 273 275 268 257 246 249
111 127 131 218 206 218 172 145 180 176 135 317 327 11 58 138 167 142 109 120 128 104 56 75 78 86 107 127 137 141 145 148 150 149 152 157 162 163 163 171 173 175 179 184 187 185 184 185 187 184 178 174 173 174 171 173 176 171 169 172 172 170 174 179 182 183 182 182 183 182 184 188 194 199 204 204 204 205 205 207 210 214 216 217 219 225 237 240 249 260 265 272 267 258 250 247 254
155 134 213 251 213 257 11 110 185 213 50 20 334 344 355 292 179 134 128 144 153 143 151 126 121 133 127 136 142 145 148 151 154 154 156 162 167 167 166 173 174 177 181 183 187 189 189 190 194 192 186 184 181 181 178 176 177 176 173 174 177 177 180 183 183 183 183 183 182 182 185 187 192 199 203 202 200 201 204 206 205 210 216 218 219 226 237 240 244 255 259 257 252 248 248 256 265
152 154 201 244 152 94 353 99 242 29 62 57 348 349 341 313 248 146 134 137 200 207 193 170 154 153 144 148 150 150 153 155 159 159 160 164 169 171 171 174 176 179 181 182 188 191 192 193 196 194 190 191 188 186 184 179 177 179 177 176 182 183 184 185 184 182 184 188 186 184 185 188 194 199 201 199 199 199 199 201 200 202 212 215 215 226 238 242 243 246 248 245 247 254 260 267 271
159 216 208 199 143 129 190 144 250 79 81 5 18 13 316 317 41 154 150 152 221 214 198 177 157 155 152 153 153 154 158 159 164 167 167 169 172 172 171 172 175 181 183 185 188 190 194 195 198 196 192 193 192 189 187 185 181 181 180 180 185 187 187 185 183 184 188 192 191 190 190 191 195 197 199 199 201 199 195 199 200 201 213 218 218 230 238 239 242 244 246 247 256 266 269 271 273
286 277 197 176 147 105 175 142 221 129 90 346 359 254 317 11 73 155 171 179 227 178 157 156 153 151 150 150 154 158 163 166 170 175 176 174 176 175 173 174 178 182 185 190 191 191 195 196 198 196 193 192 192 190 188 189 185 184 185 185 190 192 190 189 188 190 194 196 195 196 195 195 196 197 199 201 202 201 200 205 206 211 218 224 230 235 234 227 233 244 247 252 262 270 272 273 275
141 287 358 176 129 46 171 137 116 122 162 244 289 332 10 75 96 60 210 206 137 128 128 134 142 144 147 151 159 164 166 171 175 181 183 181 181 180 178 179 182 184 186 192 195 195 197 197 197 196 194 193 191 190 189 190 191 190 191 193 197 197 197 198 197 197 200 201 199 198 198 199 200 200 201 203 202 203 208 213 216 222 223 225 232 233 228 224 234 245 251 258 266 273 279 283 287
204 243 279 152 9 12 133 120 126 143 227 261 312 316 315 148 132 343 247 176 116 121 123 130 138 143 153 158 163 166 169 175 177 181 186 187 185 181 182 183 184 186 188 192 196 198 200 199 197 197 196 194 192 192 191 192 195 196 199 201 201 203 205 205 204 205 204 203 202 201 200 201 203 204 205 206 206 207 212 217 224 228 223 222 225 225 226 229 240 249 255 264 274 284 290 295 299
211 173 135 77 4 352 112 147 164 160 237 287 319 298 296 249 122 279 243 139 124 125 128 136 142 151 160 165 168 171 174 178 180 181 184 186 184 183 185 187 188 191 192 194 197 199 200 201 200 198 197 196 194 195 195 196 199 200 203 206 204 207 209 206 206 205 202 201 203 202 200 202 206 209 212 213 212 213 216 220 223 224 220 219 222 222 226 233 241 248 260 275 285 290 294 302 308
177 117 82 60 15 338 62 277 52 114 234 186 247 288 305 338 85 273 221 133 132 127 134 143 148 159 166 169 173 177 180 184 184 180 180 182 185 187 189 191 194 196 195 196 200 200 201 202 202 200 199 199 198 198 198 198 201 201 204 207 206 208 206 203 202 199 198 200 201 202 202 204 207 213 220 222 221 220 222 223 223 224 219 215 220 218 220 233 238 253 273 286 291 297 304 313 319
113 116 73 16 13 337 327 305 328 11 265 176 153 300 315 360 99 225 173 142 139 134 144 153 154 164 169 174 177 182 188 187 184 179 182 187 189 191 193 195 197 198 198 199 202 202 202 203 203 202 201 202 202 202 201 201 202 202 205 208 207 208 204 201 202 201 201 202 202 204 205 206 209 216 223 226 230 229 229 230 227 224 214 208 215 213 215 229 247 268 282 291 298 305 313 324 328
100 112 87 343 1 312 229 237 282 75 294 180 139 341 315 288 236 225 161 146 142 139 149 157 160 168 170 180 182 186 192 184 185 190 193 194 195 196 198 200 198 198 201 202 203 203 204 205 204 204 203 205 206 206 205 204 203 202 206 208 207 206 205 205 207 208 208 206 206 208 209 210 212 216 219 225 233 236 238 238 234 221 204 204 211 214 222 242 269 279 290 298 305 313 321 332 335
94 85 89 26 359 301 211 176 138 134 215 188 140 290 279 256 251 240 163 148 138 140 156 161 164 171 174 185 188 190 191 186 191 198 199 198 199 201 202 203 201 201 202 202 203 204 205 205 205 206 205 207 209 209 209 208 206 204 206 209 209 208 208 208 210 211 211 208 208 210 211 213 215 215 216 223 233 241 246 245 237 217 201 211 221 230 244 265 280 287 299 305 316 326 329 337 336
110 100 53 68 326 294 240 155 151 152 213 142 125 245 266 273 265 238 184 155 145 150 165 166 168 177 180 185 191 196 194 196 200 200 201 202 201 203 203 204 203 203 202 202 204 205 205 204 205 207 208 209 210 211 211 210 210 209 208 210 211 212 212 212 211 211 210 208 209 211 214 216 218 219 222 229 241 251 255 249 239 225 222 233 238 250 264 271 278 290 305 313 332 334 331 338 335
62 144 320 338 224 277 334 168 170 163 226 129 129 221 269 275 262 235 199 164 155 160 167 172 176 181 187 189 193 200 201 203 206 205 205 205 204 205 204 204 204 203 203 203 204 204 204 204 206 208 209 211 212 212 212 211 212 213 213 214 215 215 215 215 213 213 215 216 218 218 219 221 222 227 234 243 254 258 258 254 245 241 244 250 253 258 261 264 274 291 303 317 334 334 332 334 332
354 114 241 270 212 285 331 193 201 170 120 163 172 205 269 271 283 305 215 178 165 167 173 177 181 184 189 193 194 199 203 204 209 211 210 207 207 207 206 206 204 204 205 204 202 203 204 204 206 208 210 211 212 213 214 214 214 214 215 216 217 216 216 217 217 219 222 223 225 225 222 225 228 234 243 252 259 259 258 255 250 252 254 254 253 247 243 250 268 286 299 316 327 330 328 327 332
307 39 234 250 207 259 295 315 261 195 150 203 205 224 248 260 303 13 213 192 179 180 185 184 185 188 190 192 197 198 199 202 207 212 210 208 208 209 208 207 205 204 205 205 205 204 204 204 206 209 211 212 213 214 215 216 215 214 215 218 219 219 219 220 220 223 226 226 227 225 224 227 232 238 247 254 260 262 257 251 248 249 247 242 232 221 219 234 260 283 295 302 314 322 323 328 337
197 192 214 261 247 239 247 263 210 184 204 203 183 233 250 259 276 275 219 197 191 193 191 191 191 190 191 192 196 196 199 206 209 210 209 207 207 208 208 207 204 203 203 205 205 205 204 204 205 208 211 212 213 214 215 215 216 215 216 219 220 222 224 225 225 225 225 226 226 224 226 231 234 239 246 252 263 263 249 238 235 230 221 210 200 201 208 231 257 276 283 283 295 311 316 330 346
173 187 177 207 246 251 231 243 201 173 190 214 193 218 240 250 261 254 222 181 196 204 195 195 198 196 198 196 198 197 199 209 211 208 207 206 206 206 206 205 203 202 202 204 203 204 203 203 204 207 211 213 213 213 212 211 212 213 216 218 220 223 225 227 227 226 225 225 224 225 230 237 238 237 240 247 261 254 229 216 216 208 201 195 196 207 217 234 252 266 277 278 284 301 302 314 347
140 153 187 214 236 265 243 243 221 169 164 234 212 219 242 244 253 249 214 169 194 209 202 200 201 202 204 203 205 202 203 212 208 204 204 204 205 205 203 202 199 199 200 202 202 203 204 203 203 206 209 212 212 211 210 209 209 209 212 216 219 221 222 225 226 226 225 224 224 228 235 242 238 232 232 237 248 241 218 207 209 205 204 207 213 223 229 239 250 261 272 274 275 291 287 286 316
115 148 227 260 240 257 251 230 225 175 179 257 217 219 249 244 246 242 192 186 203 206 203 204 203 204 208 208 211 209 209 209 194 196 199 199 201 201 199 198 195 195 198 201 203 203 204 204 204 205 207 210 212 212 211 211 212 211 212 215 219 222 222 224 225 224 224 225 227 231 237 241 233 227 227 231 239 237 221 213 213 213 216 220 224 229 235 244 251 258 264 266 265 272 272 271 292
205 188 255 279 247 261 291 333 359 172 194 282 220 211 248 251 248 235 193 199 216 206 204 206 201 202 207 209 212 212 211 205 185 188 192 193 195 194 194 195 196 196 197 200 202 203 203 205 206 206 207 209 212 213 213 213 214 215 215 216 219 222 225 227 228 227 226 228 230 232 236 240 233 227 228 230 235 235 225 220 220 220 223 228 231 232 238 244 249 253 253 257 259 257 255 259 282
210 195 228 265 239 207 295 318 28 144 180 271 187 219 263 266 257 250 217 202 214 207 204 213 207 203 208 208 208 207 206 205 196 188 188 190 189 188 190 194 196 196 196 198 199 200 202 205 207 207 209 210 212 213 214 214 214 214 216 219 222 224 227 231 232 231 230 231 233 233 234 237 237 233 232 232 233 234 229 226 226 225 227 233 236 237 241 241 241 243 243 246 249 247 245 244 266
247 208 210 246 242 196 215 225 107 27 325 130 96 360 296 256 227 251 238 194 217 211 197 218 227 219 216 210 209 207 204 202 197 191 186 185 186 188 191 193 194 194 195 197 198 199 203 205 207 208 209 211 212 213 213 213 212 211 210 212 217 220 223 227 229 229 229 231 233 233 234 237 237 235 236 236 235 234 233 231 231 230 230 234 238 240 242 241 236 235 236 236 231 236 247 242 233
285 237 212 232 245 202 157 153 108 41 303 231 111 48 291 298 251 243 224 177 220 211 198 217 221 220 221 210 207 208 206 203 198 194 185 182 187 189 191 192 192 195 198 199 200 201 203 204 206 207 209 211 213 213 212 211 210 208 205 202 203 206 211 218 223 224 226 228 229 232 236 240 238 235 237 241 239 235 235 235 234 234 234 236 241 242 243 243 238 232 232 228 220 226 242 236 224
293 244 203 218 236 179 151 161 141 117 248 262 120 165 260 317 298 250 213 199 224 215 211 222 215 211 215 210 205 202 203 201 198 197 187 182 184 185 189 192 193 197 200 201 201 201 202 203 205 206 208 211 212 212 211 211 210 209 208 206 205 206 210 216 222 224 226 226 227 233 240 241 239 237 238 242 240 234 234 236 237 237 237 238 240 241 243 244 237 230 232 228 219 218 226 228 226
247 250 201 215 219 189 177 171 162 186 204 352 14 147 228 305 281 269 204 198 233 236 226 228 220 214 213 211 210 203 200 196 192 193 189 185 184 185 189 193 196 199 199 198 200 201 202 203 204 206 207 209 210 210 210 211 211 211 211 210 210 212 215 220 222 224 225 226 228 236 242 241 239 240 240 240 235 231 232 234 237 238 236 236 236 237 240 240 232 228 233 231 223 221 226 233 237
252 265 20 263 229 185 175 153 129 44 90 328 301 164 160 272 276 316 92 185 239 240 228 225 221 216 211 210 211 207 201 195 191 189 188 189 188 190 193 195 198 198 196 198 200 201 202 203 204 205 206 207 208 209 210 212 213 213 213 212 213 216 220 223 224 225 224 223 226 234 240 239 240 241 239 232 226 227 230 230 234 236 234 234 232 229 229 229 229 229 234 235 233 233 232 240 247
247 81 67 30 42 78 95 108 100 53 55 247 236 184 172 270 278 327 66 203 237 231 225 221 218 216 210 208 209 207 201 194 193 190 188 190 192 195 196 196 197 196 197 199 199 200 201 201 202 203 205 207 207 208 209 211 213 213 214 214 215 217 220 221 223 223 222 221 224 232 238 237 238 238 233 224 223 228 230 227 229 232 232 232 228 225 222 222 225 226 230 239 243 244 241 246 249
187 72 67 52 42 51 54 61 89 76 313 257 220 188 163 303 276 245 188 219 226 215 218 220 219 218 213 209 207 204 200 193 191 191 191 192 194 197 196 194 194 195 197 197 198 199 198 199 201 203 206 206 206 207 209 211 211 212 214 215 217 218 218 218 218 219 219 220 222 229 235 235 235 234 228 223 223 228 229 224 225 228 229 229 228 228 224 222 224 224 230 243 250 256 252 252 251
167 88 90 78 15 19 30 5 43 102 247 273 238 174 135 240 261 246 230 247 244 208 207 211 213 213 212 211 208 203 198 191 186 187 191 188 188 191 192 195 194 192 193 194 196 197 197 199 200 202 205 205 205 206 207 210 211 212 214 216 218 220 219 218 217 218 219 220 221 226 231 231 232 232 228 225 224 226 227 224 224 226 228 228 231 233 229 226 227 228 236 247 255 263 264 260 256
139 117 103 102 328 18 29 324 13 193 242 270 176 136 122 240 253 263 260 260 249 224 217 212 209 205 204 206 205 201 192 185 184 185 187 184 178 179 186 192 192 190 192 194 195 196 196 197 199 201 203 202 202 205 208 211 211 213 215 217 219 220 221 220 220 221 222 222 222 224 227 227 228 230 229 227 227 227 228 226 225 228 231 232 234 237 236 234 234 236 241 249 257 266 270 268 262
139 145 136 145 144 90 291 273 267 251 273 310 163 156 248 278 265 259 261 264 244 227 226 215 206 202 202 202 197 190 185 186 187 184 185 186 181 181 185 188 190 192 195 196 195 194 194 198 200 198 191 185 193 206 215 221 222 219 217 218 220 221 221 223 224 224 224 224 224 225 228 227 228 230 231 230 229 230 230 229 228 229 232 234 236 239 241 241 242 243 245 250 258 266 270 269 266
176 161 135 148 160 156 212 221 198 228 267 352 7 173 194 229 255 249 256 277 266 234 224 205 196 197 188 183 182 180 184 187 186 186 187 188 186 185 186 188 190 194 196 196 194 192 196 200 193 177 167 187 201 206 209 217 227 228 223 221 221 222 224 225 227 228 227 226 226 227 229 229 229 232 233 233 232 232 232 232 231 231 232 233 234 237 241 243 245 247 249 254 261 268 269 266 266
239 138 110 178 192 161 173 190 177 172 150 18 299 233 213 217 262 280 299 315 317 242 194 170 172 175 151 153 175 183 188 186 185 189 190 192 190 188 188 189 192 195 195 195 194 192 195 193 176 173 191 203 205 206 208 212 217 222 226 226 223 222 224 226 228 229 228 227 227 227 229 230 231 233 233 234 234 234 234 234 233 231 231 232 232 234 238 242 246 249 254 259 264 267 268 265 265
232 120 168 230 180 134 123 185 172 86 138 266 273 264 297 316 288 300 4 360 358 42 134 149 159 154 149 167 178 184 191 188 187 190 191 193 192 191 193 192 192 194 195 195 194 191 190 182 170 177 196 206 206 207 211 214 215 214 220 228 228 224 223 225 228 229 228 228 229 230 232 232 232 233 233 235 236 236 236 236 235 233 232 232 233 234 238 241 245 250 255 260 264 268 268 265 264
125 184 208 203 103 98 107 139 17 48 194 274 322 262 292 329 293 314 357 346 333 21 52 116 138 143 160 184 186 188 193 190 192 194 194 194 192 194 196 196 196 196 195 194 192 191 187 182 177 182 195 204 206 207 211 216 218 215 215 222 227 227 225 226 228 230 231 230 230 232 232 232 232 232 233 235 237 238 238 237 236 235 235 236 237 237 240 242 244 249 255 260 264 268 268 265 264
148 188 173 130 140 181 89 141 143 107 205 278 313 294 270 220 233 280 280 241 231 304 347 177 170 168 177 191 194 195 192 189 197 199 199 197 195 198 198 199 200 196 194 193 191 190 187 184 184 189 197 202 205 207 211 216 219 218 218 220 224 225 226 227 229 230 231 232 233 233 232 232 231 231 231 233 236 238 239 238 237 237 238 239 240 241 242 243 245 250 255 258 262 266 268 267 265
92 122 125 106 142 164 169 150 154 157 172 245 305 324 279 229 221 193 210 228 211 183 210 216 203 189 185 191 193 194 191 192 199 202 205 202 199 201 200 199 198 194 193 192 189 189 188 187 188 191 194 197 201 207 211 215 219 220 220 221 223 224 224 226 228 230 231 232 233 234 233 233 231 228 228 230 232 234 236 238 238 238 239 240 242 243 244 247 250 253 256 258 261 265 267 267 267
141 143 170 182 97 124 152 93 87 131 143 176 229 309 271 251 213 187 212 229 212 191 196 212 217 195 187 196 194 193 196 199 201 202 207 207 200 199 200 200 196 192 191 190 189 189 189 189 188 186 186 192 201 206 209 214 218 219 220 221 222 224 225 226 227 228 230 232 233 233 233 232 229 227 227 228 230 231 234 237 239 239 239 241 243 245 246 248 251 254 256 258 261 263 265 266 268
178 181 187 178 144 121 124 200 290 95 125 163 158 231 269 260 199 207 229 220 210 210 195 196 217 205 196 206 202 199 204 209 211 210 208 206 193 186 190 192 188 185 185 187 188 188 190 190 186 181 185 195 203 205 207 213 215 217 221 224 225 226 228 228 226 226 229 231 232 232 232 231 229 228 228 228 230 231 234 237 240 241 239 240 243 245 246 247 250 253 255 258 261 263 263 265 266
Height
774 775 775 776 775 776 778 779 797 799 800 815 814 813 809 800 800 799 800 796 796 793 787 788 789 791 796 800 802 802 803 807 810 819 822 807 798 801 802 805 807 808 809 810 811 812 813 815 817 818 820 822 824 826 828 829 830 830 833 836 836 836 836 835 836 839 839 840 841 842 843 843 844 845 846 847 848 849 849 850 851 852 853 854 854 855 856 856 857 858 858 858 858 858 858 857 858
774 776 775 776 775 779 784 783 804 810 806 818 815 813 806 797 799 800 799 795 794 790 785 787 788 791 793 793 796 800 803 802 801 804 806 802 802 802 802 805 807 808 809 810 811 813 814 815 816 818 819 821 822 824 826 828 829 830 832 835 836 836 836 835 836 839 840 840 842 844 844 844 845 846 847 848 849 850 850 851 852 853 854 855 855 856 857 857 858 859 859 859 859 859 859 858 858
775 776 775 777 776 778 785 787 806 816 813 820 815 808 802 799 799 798 795 792 790 786 786 788 790 792 794 798 798 802 806 801 799 801 802 803 803 802 803 805 807 809 809 810 812 813 814 815 816 817 818 820 821 822 825 827 828 830 831 835 837 836 836 835 835 839 840 841 842 844 845 845 846 846 848 848 849 850 851 852 853 854 855 856 856 857 858 858 859 859 860 860 860 860 859 859 859
775 776 775 776 780 782 789 796 808 814 816 821 816 805 800 800 797 796 792 789 787 785 788 790 794 793 794 803 801 802 805 801 799 799 802 803 802 802 803 805 807 809 809 811 812 814 816 817 817 818 819 821 822 823 825 826 828 830 830 834 837 835 835 835 837 839 840 842 843 845 846 846 846 847 848 849 850 851 852 853 854 855 856 857 857 858 858 859 860 860 860 860 860 860 860 860 860
775 777 776 776 785 788 793 802 808 811 814 815 813 803 798 798 796 795 792 789 786 786 788 790 798 794 793 800 800 803 804 801 799 798 800 802 803 803 804 806 807 809 810 811 812 814 816 818 819 820 822 822 823 824 826 828 829 830 830 833 836 834 834 835 837 839 841 842 843 846 846 846 847 848 849 849 851 851 853 854 854 856 856 857 858 859 859 860 860 861 861 861 861 861 860 860 861
776 777 776 776 783 785 795 807 810 812 809 806 807 801 796 795 794 794 792 789 787 786 787 790 796 796 799 799 797 800 800 799 799 798 799 801 803 804 805 807 809 811 812 813 813 814 816 818 820 822 824 824 824 825 827 830 831 830 831 833 834 834 834 835 837 839 841 842 843 845 846 847 848 848 849 850 851 852 853 854 855 856 857 858 858 859 860 861 861 861 861 861 861 861 861 861 861
777 779 780 782 785 785 801 812 812 813 805 801 802 798 795 794 792 793 793 793 791 789 788 791 791 796 805 801 799 799 796 797 797 798 799 800 803 804 807 809 811 814 816 817 818 818 817 818 819 822 824 824 825 826 828 830 832 832 833 834 834 834 835 836 837 839 841 842 843 845 847 847 848 849 850 851 852 853 854 855 856 856 857 858 859 860 860 861 861 862 862 862 862 862 862 862 862
778 782 784 790 796 795 806 812 810 811 803 798 798 795 793 791 791 793 795 795 796 793 792 793 790 799 807 801 805 801 795 797 796 798 800 800 803 804 807 809 812 815 819 821 823 824 822 821 820 821 823 824 825 826 828 830 832 834 834 834 834 835 836 837 838 840 841 843 844 845 847 848 849 849 850 851 852 853 854 855 856 857 858 858 859 860 861 861 862 862 862 862 862 862 862 863 863
778 783 787 793 802 803 808 813 810 806 801 796 795 793 791 789 790 793 795 795 795 795 795 793 791 801 807 804 807 801 797 798 797 799 800 802 803 805 807 809 812 814 818 821 824 826 826 826 824 824 825 826 827 828 830 832 834 834 835 835 835 836 837 838 839 840 842 843 845 846 847 848 849 850 851 852 853 854 855 856 856 857 858 859 860 860 861 861 862 862 862 863 863 863 863 863 863
781 785 790 797 803 809 812 813 809 803 799 795 793 791 789 788 788 792 795 796 794 795 796 791 793 801 806 807 807 801 800 799 798 801 801 803 804 805 808 810 812 813 816 819 821 824 826 827 827 829 829 830 831 833 834 835 836 835 835 835 836 837 838 839 840 841 842 844 845 847 848 849 850 851 852 852 853 855 855 856 857 858 858 859 860 861 861 862 862 862 863 863 863 863 863 864 864
789 788 790 800 807 812 814 813 808 802 797 793 791 788 787 786 788 792 793 796 794 796 795 792 799 803 805 808 807 801 800 800 799 802 802 804 805 806 808 810 813 814 815 817 820 822 824 826 828 830 831 832 833 834 835 834 834 834 835 836 837 838 839 840 841 842 843 845 846 848 849 850 851 851 852 853 854 855 856 857 857 858 859 860 860 861 861 862 862 862 863 863 863 863 864 864 864
795 795 794 805 811 811 811 811 808 802 796 793 791 786 785 785 790 794 794 797 795 798 796 793 798 799 807 811 806 802 801 802 801 802 804 805 806 807 809 811 813 814 815 817 819 820 822 824 826 828 830 831 831 832 832 832 833 834 835 836 837 839 840 841 842 843 843 845 846 848 850 850 851 852 853 854 855 855 856 857 858 859 859 860 860 861 862 862 862 863 863 863 864 864 864 864 864
795 798 799 808 810 811 810 810 808 803 799 795 793 786 784 786 790 792 794 796 796 799 796 791 792 795 808 811 804 803 802 803 803 804 805 806 807 808 809 811 813 815 815 817 818 819 821 822 823 825 827 828 829 829 830 831 832 833 835 836 838 839 840 842 842 843 844 845 846 848 850 851 852 852 853 854 855 856 857 858 858 859 859 860 861 861 862 862 862 863 863 863 864 864 864 864 864
791 794 799 808 810 810 810 811 808 805 803 795 791 786 784 787 786 787 791 797 798 796 792 787 788 796 808 810 808 806 803 803 804 805 806 807 808 809 810 811 813 815 816 817 818 819 820 821 822 824 825 827 828 829 830 831 832 833 835 837 838 840 841 842 843 844 845 846 846 848 850 852 852 853 854 855 856 856 857 858 858 859 860 860 861 861 862 862 863 863 863 864 864 864 864 864 864
789 791 797 807 811 810 809 811 807 805 803 794 791 788 786 784 781 786 789 795 797 789 787 788 787 796 805 807 809 804 801 803 804 806 807 808 809 810 811 812 814 815 816 817 818 819 820 821 822 823 825 827 828 829 830 831 833 834 835 837 839 840 841 843 844 844 845 846 847 849 851 852 853 853 854 855 856 857 857 858 859 859 860 861 861 862 862 862 863 863 864 864 864 864 864 864 864
785 790 799 808 812 812 809 810 808 805 801 793 790 787 788 786 780 787 785 785 794 788 788 793 789 793 798 799 800 798 800 803 804 806 807 809 810 811 812 813 814 815 816 817 818 819 820 822 822 824 826 827 828 829 830 832 834 835 836 838 839 841 842 843 844 844 846 847 848 849 851 853 854 854 855 856 856 857 858 858 859 860 860 861 861 862 862 863 863 863 864 864 864 864 864 864 863
784 792 804 810 811 811 807 807 806 803 798 792 791 788 792 791 783 784 781 781 791 793 792 793 789 789 792 794 795 797 801 803 804 806 808 810 811 812 813 814 814 815 816 817 819 820 821 822 823 825 826 828 829 830 831 832 834 836 837 838 840 841 842 844 844 845 846 847 849 849 851 853 854 855 855 856 856 857 858 858 859 860 861 861 862 862 862 863 863 864 864 864 864 864 864 864 863
789 799 808 810 809 805 799 800 799 797 795 793 792 791 792 793 789 784 784 789 793 795 795 793 792 790 791 793 794 798 801 803 805 806 808 810 811 812 813 814 815 816 817 818 819 820 821 822 824 825 827 829 830 831 832 833 835 836 838 839 840 842 843 844 845 846 847 848 849 850 851 853 854 855 855 856 856 857 858 858 859 860 861 861 862 862 863 863 863 864 864 864 864 864 864 864 863
793 802 808 805 802 797 791 793 794 793 794 793 792 792 791 791 790 785 791 799 796 799 801 797 798 796 794 795 797 800 801 804 805 806 808 809 811 812 813 814 816 816 817 818 819 820 822 823 824 826 827 829 831 832 833 834 836 837 839 840 841 842 843 844 845 846 848 849 849 850 851 853 854 855 855 856 856 857 858 859 859 860 861 861 862 863 863 863 863 864 864 864 864 864 864 864 863
792 799 805 800 795 794 791 791 791 791 792 793 793 790 790 789 786 786 793 801 799 802 803 800 803 801 798 797 797 800 802 804 806 807 808 809 811 811 813 814 815 817 818 819 820 821 822 823 825 826 828 830 831 833 834 835 837 838 840 841 841 842 843 844 845 847 848 849 849 850 852 853 854 855 855 856 857 857 858 859 859 860 861 861 862 862 863 863 863 863 864 864 864 864 864 864 864
792 795 801 796 792 795 793 790 790 790 791 793 793 791 790 787 785 787 793 802 804 801 796 794 798 798 798 798 798 800 802 804 806 807 808 809 811 812 813 814 816 817 818 820 821 822 823 824 825 827 829 830 832 833 834 836 837 839 840 841 842 843 844 845 846 847 848 849 850 851 852 853 854 855 855 856 857 857 858 859 859 860 861 861 862 862 862 863 863 863 864 864 864 864 864 864 864
792 792 793 793 792 795 792 789 790 790 790 792 793 793 790 786 785 788 791 799 800 792 788 789 790 792 794 795 798 800 802 804 806 807 808 809 810 812 813 814 816 818 819 820 821 822 823 825 826 827 829 830 832 833 835 836 838 839 840 842 843 844 845 845 846 847 848 849 850 851 852 853 854 855 855 856 857 857 858 859 859 860 860 861 861 862 862 863 863 864 864 865 865 865 865 865 864
794 793 789 791 790 792 790 789 790 789 791 792 792 791 788 788 789 788 788 791 788 781 782 786 788 789 791 794 797 799 802 803 805 806 807 808 810 811 813 814 816 817 819 820 821 822 823 825 826 827 829 830 832 834 835 837 838 840 841 842 843 844 845 846 847 848 849 850 850 851 852 853 854 855 856 856 857 858 858 859 859 860 860 861 862 862 863 863 864 864 865 865 865 865 865 865 865
795 795 790 790 789 790 790 789 790 790 792 791 789 790 789 791 791 789 789 786 782 779 781 785 789 790 792 795 797 799 801 802 804 806 807 808 809 811 812 814 815 817 818 819 821 822 823 825 826 828 829 831 832 834 835 837 838 840 841 842 843 844 845 846 847 848 849 850 851 852 853 854 855 855 856 857 857 858 859 859 860 860 861 862 862 862 863 863 864 864 865 865 865 865 865 865 865
794 795 791 790 790 789 789 788 790 791 791 789 789 791 790 790 790 790 789 785 781 781 783 786 790 792 794 796 798 799 801 802 804 805 807 809 810 812 813 814 815 817 817 819 820 821 823 825 826 828 829 831 832 834 835 837 838 839 841 842 843 844 845 846 847 848 849 850 851 852 853 854 855 856 856 857 858 858 859 859 860 861 861 862 862 863 863 864 864 865 865 865 866 866 866 866 865
791 791 792 791 792 790 789 789 789 791 790 790 791 791 789 787 788 790 787 784 783 783 786 788 791 795 797 797 798 799 801 802 804 805 807 809 810 812 813 814 815 816 817 818 819 821 822 824 826 827 829 831 832 834 835 837 838 839 840 842 843 844 845 846 847 848 849 850 851 852 853 854 855 856 857 857 858 858 859 860 860 861 861 862 862 863 864 864 865 865 865 866 866 866 866 866 865
786 789 791 792 793 790 790 790 789 791 789 789 793 792 789 786 789 794 788 783 783 785 790 790 793 797 797 798 798 799 801 801 803 805 807 808 810 811 812 813 814 815 817 818 819 820 822 824 826 827 829 831 832 834 835 837 838 839 840 842 843 844 845 846 847 849 850 850 851 853 853 854 855 856 857 857 858 858 859 860 860 861 861 862 862 863 864 865 865 865 866 866 866 866 866 865 864
785 788 793 794 793 792 791 790 789 791 791 789 791 792 789 787 792 793 787 783 783 787 793 793 795 797 798 799 799 799 800 801 803 805 806 806 807 809 810 811 813 815 816 817 818 820 822 823 825 827 829 830 832 834 835 837 838 839 841 842 843 844 846 847 848 849 850 851 852 853 854 854 855 856 856 857 858 859 859 860 860 861 861 862 863 864 864 865 865 866 866 866 866 866 865 864 863
787 788 796 798 795 796 793 791 791 793 793 787 789 798 796 792 793 788 783 784 785 789 793 795 796 798 798 799 799 800 800 802 803 804 804 805 806 807 809 810 812 814 815 817 818 820 821 823 825 826 828 830 832 833 835 837 839 840 841 842 843 845 846 847 848 849 850 851 852 853 854 855 855 856 857 857 858 859 859 860 860 861 862 863 863 864 865 865 866 866 866 866 866 865 864 863 863
791 791 798 802 803 801 792 791 794 794 794 786 791 810 806 794 790 786 784 784 788 793 795 796 797 798 799 799 800 801 800 801 802 802 803 804 806 806 808 810 811 813 815 816 818 819 821 823 824 826 828 829 831 833 835 837 839 840 841 842 844 845 846 847 848 849 850 851 852 853 854 855 856 856 857 858 858 859 859 860 861 861 862 863 864 865 865 865 866 865 866 866 865 865 864 863 862
795 798 801 806 812 806 792 792 795 796 795 785 795 816 808 793 790 787 785 784 788 795 796 796 798 798 799 799 800 801 799 799 799 800 802 803 805 806 807 810 811 812 813 815 816 818 820 822 824 825 827 829 830 832 834 836 838 840 841 842 844 845 846 847 848 849 850 851 852 853 854 855 856 856 857 858 858 859 859 860 861 862 863 864 864 865 865 865 865 865 865 865 865 865 864 863 862
798 806 812 813 813 806 795 793 793 796 796 788 797 814 807 793 789 786 785 785 788 794 796 796 797 798 798 798 799 800 799 798 799 800 801 803 804 805 806 808 810 811 812 814 815 817 819 821 823 824 826 828 829 831 833 835 837 839 841 842 844 845 846 847 848 849 850 851 852 853 854 855 855 856 857 858 858 859 859 860 861 862 863 863 864 865 865 865 865 865 865 865 865 864 864 863 863
803 808 816 814 812 810 801 796 793 792 796 795 798 807 804 794 788 787 786 787 789 793 795 795 796 796 797 797 798 799 800 799 799 799 800 802 803 804 805 806 808 810 811 813 814 816 818 820 821 823 825 827 829 831 833 835 837 838 840 842 843 845 846 847 848 849 850 851 852 853 854 854 855 856 857 857 858 858 859 860 860 861 862 863 864 864 865 865 865 865 865 865 865 864 864 863 863
810 811 814 811 809 811 806 800 795 792 796 799 799 802 800 792 788 788 787 787 790 793 794 794 794 795 795 795 797 798 799 799 797 796 797 799 801 802 804 805 807 809 811 812 814 815 817 819 820 822 824 826 828 830 832 834 836 838 840 841 843 844 845 846 848 849 850 851 852 853 854 854 855 856 857 858 858 858 859 859 860 861 861 862 863 864 865 865 865 865 865 865 865 865 864 863 863
809 812 813 811 807 808 807 801 795 795 798 800 803 805 799 791 788 788 787 787 790 791 791 791 791 792 793 794 795 796 797 796 793 792 794 796 798 801 802 804 806 808 810 812 813 815 816 818 820 822 824 825 827 829 831 833 835 837 839 841 842 843 845 846 847 848 850 851 852 853 854 854 855 856 857 857 857 858 858 859 859 860 861 862 863 864 864 865 865 865 865 865 865 865 864 864 864
800 803 806 808 806 804 802 797 792 793 800 802 803 803 798 793 790 788 787 786 789 789 789 791 791 791 791 792 792 793 794 792 788 789 792 795 797 799 800 803 805 807 809 811 813 815 816 817 819 820 822 824 826 828 830 832 834 836 838 839 841 842 843 845 846 848 849 850 851 853 854 854 855 856 857 857 858 858 858 859 859 860 861 862 863 864 864 865 865 865 865 865 865 865 864 864 864
795 800 803 804 806 804 796 793 790 789 799 802 798 799 797 793 789 787 786 787 789 790 790 791 791 790 790 790 790 790 790 787 785 788 791 793 795 797 799 802 804 806 808 810 811 813 814 816 817 819 820 823 825 826 828 830 832 834 836 838 839 840 842 843 845 846 848 849 851 852 853 854 855 855 856 857 858 858 858 859 860 860 861 862 863 863 864 865 865 865 865 865 865 865 865 864 864
794 799 802 804 805 801 792 791 791 788 796 798 795 800 798 791 789 786 786 788 788 788 789 790 789 789 788 787 788 787 786 785 785 787 789 791 794 795 798 800 802 804 806 807 809 811 813 815 816 817 819 821 822 824 827 828 830 832 834 836 838 839 841 842 844 845 847 849 850 851 852 853 854 855 856 857 858 858 858 859 860 860 861 862 863 863 864 864 864 865 864 865 865 865 865 864 864
795 798 802 804 801 797 793 793 794 792 796 798 796 801 798 790 787 786 785 786 785 783 784 785 785 787 787 786 785 785 785 785 785 786 786 789 791 794 797 798 800 802 803 805 807 809 812 813 815 816 818 819 821 823 825 826 829 831 833 835 837 839 840 842 843 845 847 848 849 850 852 853 854 855 856 856 857 858 859 859 860 860 861 862 863 863 864 864 864 864 864 864 864 864 864 864 864
794 796 801 801 796 797 798 797 798 794 795 798 798 801 796 790 787 784 782 782 780 780 780 781 782 783 782 781 780 781 783 784 784 784 785 787 789 792 794 796 798 800 802 804 806 808 809 811 813 814 816 817 819 821 823 826 828 830 833 834 836 838 840 841 843 844 846 847 848 850 851 852 853 854 855 856 857 858 858 859 860 860 861 862 862 863 863 863 863 863 864 864 864 864 864 864 864
793 792 796 795 791 794 796 797 799 798 798 796 798 804 795 787 790 784 779 781 781 779 780 781 780 780 778 778 777 778 778 780 782 783 783 784 787 789 791 793 796 798 800 802 803 805 806 808 810 812 814 816 818 820 822 825 827 830 832 834 836 837 839 840 841 843 844 845 847 848 850 851 852 853 855 856 856 858 858 859 860 860 861 861 862 862 863 863 863 863 863 863 863 863 863 864 864
794 786 784 784 783 788 793 796 799 806 808 795 797 812 801 786 789 786 780 783 782 780 780 779 778 778 778 778 777 776 776 775 776 778 779 781 783 786 789 791 793 795 797 798 800 802 804 806 809 811 813 815 817 819 822 824 826 828 830 831 833 835 836 837 838 840 842 844 845 847 849 850 851 852 853 855 856 857 858 858 859 859 860 860 861 862 862 862 862 863 863 863 863 863 863 863 864
798 781 771 775 780 785 792 794 795 805 809 795 795 810 807 791 782 782 783 784 782 780 780 777 775 776 776 776 775 774 774 773 774 775 776 779 781 784 787 788 790 791 793 796 798 801 803 805 807 809 811 813 815 818 820 823 825 826 828 829 830 832 833 835 836 839 840 843 844 846 847 848 849 851 852 853 855 856 857 857 858 859 859 859 860 861 861 861 862 862 862 862 862 862 862 863 863
793 771 766 774 779 783 788 790 793 797 799 799 798 801 809 803 785 782 786 785 784 783 780 776 773 773 773 773 772 771 772 771 772 774 774 776 779 781 783 784 786 788 791 795 797 799 801 803 805 808 810 812 814 817 819 821 823 825 826 828 829 830 832 833 835 837 839 841 843 844 846 847 848 849 850 852 853 855 856 856 857 857 858 858 859 860 860 861 861 861 862 862 862 862 862 862 863
779 765 769 773 774 781 784 790 796 796 798 807 805 800 813 811 787 784 789 787 788 783 777 775 771 770 769 768 769 767 768 768 768 771 772 773 775 777 779 780 783 786 789 792 794 796 799 801 804 806 809 811 813 815 817 819 821 823 825 827 828 829 831 833 835 836 838 839 841 842 844 845 846 847 849 850 851 853 854 855 856 856 857 857 858 859 859 860 861 861 861 861 861 861 861 862 862
769 766 773 774 778 782 786 795 795 797 806 809 803 800 811 808 785 784 792 788 784 776 770 770 766 765 765 764 765 764 765 766 766 767 767 769 771 773 776 778 781 784 787 790 792 795 797 800 803 805 807 809 811 813 815 817 820 822 824 825 826 828 830 832 833 835 836 838 839 841 841 843 844 846 847 848 850 851 853 854 854 855 856 856 857 858 858 859 860 860 861 861 861 861 861 861 862
766 770 776 781 786 784 789 795 791 806 817 803 796 798 804 806 787 779 783 773 767 766 765 766 763 762 762 761 762 761 763 764 764 765 765 767 769 771 775 777 780 783 786 789 792 794 796 798 800 802 804 807 809 812 814 816 818 820 822 823 825 826 828 830 832 833 834 836 837 838 839 841 842 844 845 847 848 850 851 852 853 854 855 855 856 857 858 858 859 860 860 860 860 860 860 861 861
768 774 778 786 794 793 798 800 799 818 820 800 799 800 804 812 789 769 768 761 758 761 760 761 760 761 761 760 759 758 760 762 763 765 765 767 770 772 775 777 779 782 784 787 790 792 794 796 798 800 802 805 806 809 811 814 816 818 820 821 823 825 826 828 829 831 832 833 835 836 837 839 840 842 843 844 846 848 849 850 851 853 853 854 855 856 857 857 858 859 859 859 860 859 860 860 860
771 776 781 794 807 809 813 818 819 822 812 801 805 801 804 808 781 761 761 756 756 757 754 754 755 756 757 757 757 756 758 760 762 764 764 766 769 771 773 775 777 780 781 784 786 789 792 794 796 797 799 803 808 811 813 814 815 816 818 820 821 823 825 826 827 828 830 831 832 834 835 836 838 839 841 842 844 845 847 848 849 851 852 853 854 855 856 856 857 857 858 858 859 859 859 859 859
772 776 782 795 810 819 825 831 829 817 805 803 803 799 803 797 771 757 756 751 750 750 748 749 748 750 752 752 753 755 756 758 759 761 763 764 766 768 770 773 775 777 778 781 784 787 791 793 795 798 803 808 813 816 818 819 819 817 817 818 820 821 822 824 825 826 828 829 830 832 833 834 835 837 838 840 841 843 844 846 847 849 850 851 852 853 854 855 856 856 857 857 857 858 858 858 858
770 770 775 785 794 804 816 819 815 810 807 807 804 800 798 787 766 754 751 749 748 746 745 745 745 747 748 750 753 754 755 757 757 759 760 761 763 765 767 770 771 773 775 778 781 785 787 790 795 801 807 809 809 809 812 814 816 818 818 817 818 820 821 822 823 824 826 827 828 830 831 832 833 835 836 838 839 841 842 843 845 846 848 850 851 852 853 854 854 855 855 856 856 857 857 857 857
771 768 774 781 775 778 796 805 801 803 806 807 806 796 783 771 757 748 750 750 747 746 745 744 746 746 748 751 753 754 754 755 756 757 758 759 760 762 764 767 768 770 773 775 778 781 784 789 794 798 801 801 801 802 804 805 808 812 815 817 817 818 820 821 822 823 824 825 827 828 829 830 831 833 834 836 837 838 840 841 843 844 846 847 849 850 851 852 853 853 854 854 854 855 855 855 856
773 773 773 772 763 764 786 804 802 802 805 807 805 792 776 769 758 747 750 750 747 749 747 745 747 747 749 751 752 753 753 752 753 754 756 756 757 760 761 763 765 767 770 772 775 779 783 787 790 792 795 796 797 798 800 802 805 807 811 816 818 818 819 820 820 821 822 824 825 826 827 828 829 831 832 833 835 836 838 839 840 842 843 845 846 847 849 850 851 851 852 852 853 853 854 854 854
766 773 764 761 765 766 776 796 806 811 812 807 804 797 787 784 772 752 749 750 748 750 748 747 750 749 750 751 750 751 750 750 751 751 752 754 755 757 758 760 762 764 767 770 773 777 780 783 785 787 790 792 795 797 798 801 804 806 808 811 815 817 818 819 819 820 821 822 823 824 825 826 827 828 830 831 832 834 835 837 838 840 841 843 844 845 847 847 848 849 849 850 851 851 852 852 852
752 757 753 759 776 779 778 792 803 811 818 810 803 803 794 786 775 756 751 749 746 748 749 748 749 750 751 751 750 750 750 750 751 750 752 752 753 755 756 758 760 762 766 768 771 774 777 780 782 782 784 787 791 795 797 799 801 804 805 806 809 812 814 816 817 818 819 820 821 821 822 824 825 826 828 828 830 831 833 834 835 837 838 840 842 843 844 845 846 847 847 848 849 849 850 850 850
749 751 754 759 768 774 777 784 788 796 814 815 805 802 787 771 764 755 748 745 742 746 747 745 747 749 749 750 749 749 750 750 750 750 750 750 750 752 753 756 758 760 764 766 769 772 774 777 779 781 784 787 791 793 795 798 799 802 803 803 805 807 809 811 813 815 817 817 818 819 820 822 823 824 825 826 828 829 830 832 833 835 836 837 839 840 842 843 844 844 845 846 847 847 847 847 848
758 760 764 764 765 770 773 780 783 784 800 811 810 803 777 755 755 752 742 741 742 743 741 741 745 747 748 748 747 748 748 748 748 748 748 748 749 751 752 754 757 759 762 764 767 770 772 774 778 781 785 788 790 791 792 795 797 799 800 801 803 805 806 808 809 811 813 814 816 817 818 819 821 822 823 824 825 827 828 829 830 832 833 835 836 838 839 841 841 842 843 844 845 845 845 846 846
752 755 758 759 762 770 778 790 790 781 787 798 804 801 772 747 750 750 741 740 740 741 741 739 742 745 746 747 745 746 747 746 746 746 746 747 748 750 752 754 757 759 761 764 766 769 770 773 777 780 784 785 787 788 789 791 794 796 798 800 802 803 805 806 807 808 809 811 813 813 815 817 818 819 821 822 823 825 826 827 828 829 831 832 833 835 836 838 839 840 841 842 843 843 844 844 844